PIMOHWEATHER Station Historical Data
Daily Summary for July 14, 2020 Units:  Metric    English   Both
Daily Weekly Monthly Yearly
  High: Low: Average:
Temperature: 36.0 °C 26.0 °C 30 °C
Dew Point: 28.0 °C 24.0 °C 25.8 °C
Humidity: 94% 56% 80%
Wind Speed: 17km/h 0km/h 5.5km/h
Wind Gust: 20km/h - -
Wind- - South
Pressure: 1012.2 hPa 1008.4 hPa -
Precipitation: 0.00 mm    
 
 
Tabular Data for July 14, 2020
Time Temperature Dew Point Pressure Wind Wind Speed Wind Gust Humidity Rainfall Rate (Hourly) solar
00:04 26.0 °C 24.0 °C 1010.9 hPa North 1 km/h 4 km/h 92% 0.00 mm 0.00 W/m2
00:09 26.0 °C 24.0 °C 1010.8 hPa North 3 km/h 4 km/h 92% 0.00 mm 0.00 W/m2
00:14 26.0 °C 24.0 °C 1010.8 hPa North 3 km/h 4 km/h 93% 0.00 mm 0.00 W/m2
00:19 26.0 °C 25.0 °C 1010.8 hPa Calm     93% 0.00 mm 0.00 W/m2
00:24 26.0 °C 24.0 °C 1010.8 hPa Calm     92% 0.00 mm 0.00 W/m2
00:28 26.0 °C 24.0 °C 1010.9 hPa Calm     92% 0.00 mm 0.00 W/m2
00:34 26.0 °C 24.0 °C 1010.9 hPa North 3 km/h 4 km/h 91% 0.00 mm 0.00 W/m2
00:39 26.0 °C 24.0 °C 1011.0 hPa North 4 km/h 4 km/h 91% 0.00 mm 0.00 W/m2
00:44 26.0 °C 24.0 °C 1011.0 hPa NNW 3 km/h 4 km/h 91% 0.00 mm 0.00 W/m2
00:49 26.0 °C 24.0 °C 1010.8 hPa North 3 km/h 4 km/h 91% 0.00 mm 0.00 W/m2
00:53 26.0 °C 24.0 °C 1010.5 hPa North 1 km/h 4 km/h 91% 0.00 mm 0.00 W/m2
00:59 26.0 °C 24.0 °C 1010.5 hPa NNW 2 km/h 4 km/h 92% 0.00 mm 0.00 W/m2
01:04 26.0 °C 24.0 °C 1010.5 hPa NNW 4 km/h 4 km/h 91% 0.00 mm 0.00 W/m2
01:09 26.0 °C 24.0 °C 1010.5 hPa Calm     91% 0.00 mm 0.00 W/m2
01:14 26.0 °C 24.0 °C 1010.5 hPa NW 3 km/h 4 km/h 91% 0.00 mm 0.00 W/m2
01:16 26.0 °C 24.0 °C 1010.2 hPa NNW 2 km/h 4 km/h 91% 0.00 mm 0.00 W/m2
01:24 26.0 °C 24.0 °C 1010.5 hPa Calm     91% 0.00 mm 0.00 W/m2
01:29 26.0 °C 24.0 °C 1010.2 hPa Calm     91% 0.00 mm 0.00 W/m2
01:34 26.0 °C 24.0 °C 1010.2 hPa NNE 5 km/h 8 km/h 91% 0.00 mm 0.00 W/m2
01:39 26.0 °C 24.0 °C 1010.2 hPa North 3 km/h 4 km/h 91% 0.00 mm 0.00 W/m2
01:44 26.0 °C 24.0 °C 1010.3 hPa North 1 km/h 4 km/h 91% 0.00 mm 0.00 W/m2
01:49 26.0 °C 24.0 °C 1010.2 hPa Calm     91% 0.00 mm 0.00 W/m2
01:54 26.0 °C 24.0 °C 1010.2 hPa North 4 km/h 4 km/h 92% 0.00 mm 0.00 W/m2
01:59 26.0 °C 24.0 °C 1010.1 hPa NNW 4 km/h 4 km/h 92% 0.00 mm 0.00 W/m2
02:04 26.0 °C 24.0 °C 1009.8 hPa NNW 4 km/h 4 km/h 92% 0.00 mm 0.00 W/m2
02:08 26.0 °C 24.0 °C 1009.7 hPa North 3 km/h 4 km/h 92% 0.00 mm 0.00 W/m2
02:14 26.0 °C 24.0 °C 1009.8 hPa North 4 km/h 4 km/h 92% 0.00 mm 0.00 W/m2
02:19 26.0 °C 24.0 °C 1009.8 hPa NNE 4 km/h 4 km/h 92% 0.00 mm 0.00 W/m2
02:23 26.0 °C 24.0 °C 1009.9 hPa NNE 4 km/h 4 km/h 92% 0.00 mm 0.00 W/m2
02:29 26.0 °C 24.0 °C 1010.0 hPa Calm   4 km/h 92% 0.00 mm 0.00 W/m2
02:34 26.0 °C 25.0 °C 1010.0 hPa Calm   4 km/h 92% 0.00 mm 0.00 W/m2
02:39 26.0 °C 24.0 °C 1010.0 hPa Calm     92% 0.00 mm 0.00 W/m2
02:44 26.0 °C 25.0 °C 1010.0 hPa Calm     92% 0.00 mm 0.00 W/m2
02:49 26.0 °C 25.0 °C 1010.2 hPa Calm     92% 0.00 mm 0.00 W/m2
02:54 26.0 °C 24.0 °C 1010.0 hPa Calm     91% 0.00 mm 0.00 W/m2
02:58 26.0 °C 24.0 °C 1009.9 hPa Calm     91% 0.00 mm 0.00 W/m2
03:04 26.0 °C 24.0 °C 1009.9 hPa Calm     91% 0.00 mm 0.00 W/m2
03:09 26.0 °C 25.0 °C 1009.9 hPa Calm     92% 0.00 mm 0.00 W/m2
03:14 26.0 °C 25.0 °C 1009.9 hPa Calm     92% 0.00 mm 0.00 W/m2
03:19 26.0 °C 25.0 °C 1010.2 hPa Calm     92% 0.00 mm 0.00 W/m2
03:24 26.0 °C 25.0 °C 1010.2 hPa Calm     92% 0.00 mm 0.00 W/m2
03:29 26.0 °C 25.0 °C 1010.1 hPa Calm     92% 0.00 mm 0.00 W/m2
03:34 26.0 °C 25.0 °C 1010.2 hPa Calm     92% 0.00 mm 0.00 W/m2
03:39 26.0 °C 25.0 °C 1010.2 hPa Calm     92% 0.00 mm 0.00 W/m2
03:42 26.0 °C 24.0 °C 1010.2 hPa Calm     92% 0.00 mm 0.00 W/m2
03:49 26.0 °C 25.0 °C 1010.2 hPa SE 6 km/h 8 km/h 92% 0.00 mm 0.00 W/m2
03:54 26.0 °C 25.0 °C 1010.2 hPa SSE 3 km/h 4 km/h 92% 0.00 mm 0.00 W/m2
03:59 26.0 °C 25.0 °C 1010.2 hPa SSE 3 km/h 4 km/h 92% 0.00 mm 0.00 W/m2
04:04 26.0 °C 25.0 °C 1010.3 hPa SE 1 km/h 4 km/h 92% 0.00 mm 0.00 W/m2
04:09 26.0 °C 24.0 °C 1010.2 hPa Calm     92% 0.00 mm 0.00 W/m2
04:13 26.0 °C 24.0 °C 1010.5 hPa Calm     92% 0.00 mm 0.00 W/m2
04:19 26.0 °C 24.0 °C 1010.2 hPa Calm     92% 0.00 mm 0.00 W/m2
04:24 26.0 °C 24.0 °C 1010.2 hPa Calm     92% 0.00 mm 0.00 W/m2
04:29 26.0 °C 24.0 °C 1010.3 hPa Calm     93% 0.00 mm 0.00 W/m2
04:30 26.0 °C 24.0 °C 1010.3 hPa Calm     93% 0.00 mm 0.00 W/m2
04:38 26.0 °C 24.0 °C 1010.5 hPa Calm     93% 0.00 mm 0.00 W/m2
04:44 26.0 °C 24.0 °C 1010.2 hPa Calm     92% 0.00 mm 0.00 W/m2
04:49 26.0 °C 24.0 °C 1010.2 hPa Calm     92% 0.00 mm 0.00 W/m2
04:54 26.0 °C 24.0 °C 1010.5 hPa Calm     92% 0.00 mm 0.00 W/m2
04:57 26.0 °C 24.0 °C 1010.5 hPa Calm     92% 0.00 mm 0.00 W/m2
05:04 26.0 °C 24.0 °C 1010.5 hPa Calm     92% 0.00 mm 0.00 W/m2
05:14 26.0 °C 24.0 °C 1010.5 hPa Calm     93% 0.00 mm 0.00 W/m2
05:19 26.0 °C 25.0 °C 1010.5 hPa Calm     93% 0.00 mm 0.00 W/m2
05:22 26.0 °C 25.0 °C 1010.5 hPa Calm     93% 0.00 mm 0.00 W/m2
05:28 26.0 °C 24.0 °C 1010.5 hPa Calm     93% 0.00 mm 0.00 W/m2
05:34 26.0 °C 24.0 °C 1010.8 hPa Calm     93% 0.00 mm 1.86 W/m2
05:39 26.0 °C 24.0 °C 1010.7 hPa Calm     93% 0.00 mm 4.93 W/m2
05:43 26.0 °C 24.0 °C 1010.8 hPa ENE 1 km/h 4 km/h 93% 0.00 mm 7.98 W/m2
05:49 26.0 °C 24.0 °C 1010.8 hPa Calm     93% 0.00 mm 16.46 W/m2
05:53 26.0 °C 24.0 °C 1011.2 hPa Calm     93% 0.00 mm 19.06 W/m2
05:59 26.0 °C 24.0 °C 1011.0 hPa Calm     93% 0.00 mm 23.44 W/m2
06:04 26.0 °C 24.0 °C 1011.0 hPa NE 1 km/h 4 km/h 93% 0.00 mm 23.52 W/m2
06:09 26.0 °C 24.0 °C 1011.0 hPa North 5 km/h 8 km/h 93% 0.00 mm 20.28 W/m2
06:14 26.0 °C 24.0 °C 1010.9 hPa Calm     94% 0.00 mm 23.23 W/m2
06:18 26.0 °C 24.0 °C 1011.2 hPa Calm     94% 0.00 mm 26.18 W/m2
06:24 26.0 °C 25.0 °C 1011.2 hPa Calm   4 km/h 94% 0.00 mm 32.69 W/m2
06:29 26.0 °C 24.0 °C 1011.1 hPa Calm     93% 0.00 mm 38.04 W/m2
06:33 26.0 °C 25.0 °C 1011.0 hPa Calm     93% 0.00 mm 40.64 W/m2
06:39 26.0 °C 25.0 °C 1010.9 hPa Calm   4 km/h 93% 0.00 mm 49.72 W/m2
06:44 26.0 °C 25.0 °C 1011.0 hPa North 4 km/h 4 km/h 93% 0.00 mm 59.88 W/m2
06:49 26.0 °C 25.0 °C 1011.2 hPa NNE 3 km/h 4 km/h 93% 0.00 mm 73.02 W/m2
06:54 26.0 °C 25.0 °C 1011.2 hPa North 1 km/h 4 km/h 92% 0.00 mm 99.14 W/m2
06:59 26.0 °C 25.0 °C 1011.2 hPa Calm     92% 0.00 mm 125.07 W/m2
07:04 27.0 °C 25.0 °C 1011.1 hPa Calm   4 km/h 92% 0.00 mm 137.21 W/m2
07:09 27.0 °C 25.0 °C 1011.0 hPa Calm   4 km/h 90% 0.00 mm 150.13 W/m2
07:14 27.0 °C 25.0 °C 1011.1 hPa NNE 1 km/h 4 km/h 89% 0.00 mm 180.88 W/m2
07:19 28.0 °C 25.0 °C 1011.0 hPa Calm   4 km/h 88% 0.00 mm 206.43 W/m2
07:24 28.0 °C 25.0 °C 1011.0 hPa Calm   4 km/h 86% 0.00 mm 230.45 W/m2
07:29 28.0 °C 26.0 °C 1011.2 hPa Calm     86% 0.00 mm 255.12 W/m2
07:34 29.0 °C 26.0 °C 1011.2 hPa Calm     84% 0.00 mm 275.89 W/m2
07:39 29.0 °C 26.0 °C 1011.2 hPa SE 4 km/h 4 km/h 83% 0.00 mm 293.85 W/m2
07:44 29.0 °C 25.0 °C 1011.2 hPa ESE 4 km/h 4 km/h 83% 0.00 mm 305.37 W/m2
07:49 29.0 °C 26.0 °C 1011.5 hPa SE 4 km/h 8 km/h 83% 0.00 mm 343.03 W/m2
07:54 29.0 °C 26.0 °C 1011.2 hPa SE 5 km/h 8 km/h 81% 0.00 mm 369.74 W/m2
07:58 30.0 °C 26.0 °C 1011.3 hPa East 1 km/h 4 km/h 79% 0.00 mm 381.81 W/m2
08:03 30.0 °C 26.0 °C 1011.3 hPa ENE 1 km/h 4 km/h 78% 0.00 mm 396.19 W/m2
08:09 30.0 °C 26.0 °C 1011.3 hPa SSE 3 km/h 4 km/h 77% 0.00 mm 411.02 W/m2
08:14 31.0 °C 26.0 °C 1011.4 hPa NNE 5 km/h 8 km/h 77% 0.00 mm 431.70 W/m2
08:19 30.0 °C 26.0 °C 1011.3 hPa NE 5 km/h 8 km/h 78% 0.00 mm 429.42 W/m2
08:24 31.0 °C 26.0 °C 1011.4 hPa ESE 2 km/h 4 km/h 78% 0.00 mm 445.30 W/m2
08:29 31.0 °C 26.0 °C 1011.4 hPa ESE 6 km/h 8 km/h 78% 0.00 mm 459.17 W/m2
08:34 31.0 °C 26.0 °C 1011.3 hPa SSE 8 km/h 8 km/h 77% 0.00 mm 439.89 W/m2
08:39 31.0 °C 26.0 °C 1011.5 hPa SSE 2 km/h 4 km/h 77% 0.00 mm 424.09 W/m2
08:44 31.0 °C 26.0 °C 1011.4 hPa ENE 3 km/h 4 km/h 76% 0.00 mm 417.60 W/m2
08:49 31.0 °C 26.0 °C 1011.3 hPa Calm     75% 0.00 mm 481.34 W/m2
08:54 31.0 °C 26.0 °C 1011.2 hPa SW 5 km/h 8 km/h 75% 0.00 mm 445.84 W/m2
08:59 32.0 °C 26.0 °C 1011.5 hPa ENE 1 km/h 4 km/h 75% 0.00 mm 460.00 W/m2
09:04 32.0 °C 26.0 °C 1011.5 hPa South 4 km/h 8 km/h 74% 0.00 mm 438.33 W/m2
09:09 31.0 °C 26.0 °C 1011.5 hPa South 4 km/h 4 km/h 74% 0.00 mm 386.92 W/m2
09:14 31.0 °C 26.0 °C 1011.5 hPa NNE 3 km/h 4 km/h 77% 0.00 mm 333.78 W/m2
09:19 31.0 °C 26.0 °C 1011.4 hPa North 5 km/h 8 km/h 76% 0.00 mm 497.51 W/m2
09:22 31.0 °C 26.0 °C 1011.3 hPa NNW 3 km/h 4 km/h 75% 0.00 mm 436.27 W/m2
09:29 31.0 °C 26.0 °C 1011.5 hPa North 3 km/h 4 km/h 75% 0.00 mm 497.63 W/m2
09:33 31.0 °C 26.0 °C 1011.4 hPa NW 9 km/h 12 km/h 76% 0.00 mm 459.66 W/m2
09:39 31.0 °C 26.0 °C 1011.3 hPa SW 6 km/h 8 km/h 76% 0.00 mm 502.26 W/m2
09:43 31.0 °C 26.0 °C 1011.2 hPa SSE 6 km/h 8 km/h 75% 0.00 mm 562.20 W/m2
09:49 32.0 °C 27.0 °C 1011.2 hPa NW 5 km/h 8 km/h 74% 0.00 mm 546.81 W/m2
09:54 32.0 °C 27.0 °C 1011.5 hPa NNE 1 km/h 4 km/h 73% 0.00 mm 519.48 W/m2
09:59 33.0 °C 27.0 °C 1011.5 hPa SW 4 km/h 4 km/h 72% 0.00 mm 528.17 W/m2
10:04 33.0 °C 27.0 °C 1011.3 hPa SW 8 km/h 12 km/h 73% 0.00 mm 459.76 W/m2
10:09 32.0 °C 27.0 °C 1011.5 hPa SSW 6 km/h 8 km/h 74% 0.00 mm 230.62 W/m2
10:14 32.0 °C 27.0 °C 1011.2 hPa SSW 4 km/h 8 km/h 74% 0.00 mm 509.28 W/m2
10:19 32.0 °C 27.0 °C 1011.2 hPa WSW 2 km/h 4 km/h 75% 0.00 mm 508.94 W/m2
10:23 32.0 °C 26.0 °C 1011.2 hPa NW 4 km/h 4 km/h 74% 0.00 mm 538.81 W/m2
10:29 33.0 °C 27.0 °C 1010.9 hPa SSW 10 km/h 12 km/h 74% 0.00 mm 578.35 W/m2
10:34 33.0 °C 27.0 °C 1011.2 hPa SW 6 km/h 12 km/h 72% 0.00 mm 579.62 W/m2
10:39 33.0 °C 27.0 °C 1011.2 hPa WNW 6 km/h 12 km/h 72% 0.00 mm 587.26 W/m2
10:44 33.0 °C 27.0 °C 1010.9 hPa WSW 9 km/h 12 km/h 72% 0.00 mm 583.34 W/m2
10:49 33.0 °C 27.0 °C 1010.8 hPa SW 9 km/h 12 km/h 72% 0.00 mm 613.39 W/m2
10:54 33.0 °C 27.0 °C 1011.2 hPa WSW 9 km/h 12 km/h 72% 0.00 mm 606.86 W/m2
10:59 33.0 °C 27.0 °C 1010.8 hPa West 10 km/h 16 km/h 70% 0.00 mm 635.63 W/m2
11:00 33.0 °C 27.0 °C 1010.8 hPa SSW 4 km/h 8 km/h 71% 0.00 mm 600.15 W/m2
11:09 33.0 °C 27.0 °C 1010.8 hPa SW 4 km/h 4 km/h 70% 0.00 mm 629.54 W/m2
11:13 33.0 °C 27.0 °C 1010.8 hPa West 6 km/h 8 km/h 71% 0.00 mm 637.95 W/m2
11:19 33.0 °C 26.0 °C 1010.7 hPa SW 8 km/h 8 km/h 71% 0.00 mm 625.28 W/m2
11:23 33.0 °C 27.0 °C 1010.7 hPa SSW 8 km/h 8 km/h 70% 0.00 mm 646.44 W/m2
11:29 33.0 °C 26.0 °C 1010.8 hPa NW 12 km/h 16 km/h 71% 0.00 mm 629.64 W/m2
11:34 33.0 °C 27.0 °C 1010.7 hPa WSW 8 km/h 12 km/h 71% 0.00 mm 632.20 W/m2
11:39 33.0 °C 26.0 °C 1010.6 hPa WNW 9 km/h 12 km/h 70% 0.00 mm 625.82 W/m2
11:44 33.0 °C 26.0 °C 1010.7 hPa WSW 7 km/h 12 km/h 67% 0.00 mm 661.27 W/m2
11:49 33.0 °C 26.0 °C 1010.6 hPa WNW 10 km/h 12 km/h 67% 0.00 mm 636.34 W/m2
11:53 33.0 °C 26.0 °C 1010.5 hPa NW 8 km/h 12 km/h 69% 0.00 mm 620.26 W/m2
11:55 33.0 °C 26.0 °C 1010.4 hPa North 10 km/h 12 km/h 68% 0.00 mm 638.49 W/m2
12:04 33.0 °C 26.0 °C 1010.3 hPa WNW 13 km/h 16 km/h 70% 0.00 mm 643.85 W/m2
12:09 33.0 °C 26.0 °C 1010.4 hPa SSW 12 km/h 16 km/h 69% 0.00 mm 645.22 W/m2
12:14 33.0 °C 26.0 °C 1010.2 hPa South 14 km/h 16 km/h 67% 0.00 mm 627.24 W/m2
12:19 33.0 °C 26.0 °C 1010.2 hPa South 9 km/h 12 km/h 66% 0.00 mm 643.02 W/m2
12:24 34.0 °C 26.0 °C 1010.2 hPa SSW 10 km/h 12 km/h 65% 0.00 mm 639.50 W/m2
12:29 34.0 °C 26.0 °C 1010.2 hPa SSW 9 km/h 12 km/h 64% 0.00 mm 647.72 W/m2
12:34 34.0 °C 26.0 °C 1009.9 hPa SSW 10 km/h 12 km/h 64% 0.00 mm 647.35 W/m2
12:39 34.0 °C 25.0 °C 1010.1 hPa SSW 9 km/h 12 km/h 62% 0.00 mm 650.85 W/m2
12:42 34.0 °C 26.0 °C 1009.9 hPa WSW 10 km/h 12 km/h 62% 0.00 mm 652.44 W/m2
12:47 33.0 °C 25.0 °C 1009.8 hPa NNW 5 km/h 8 km/h 63% 0.00 mm 640.87 W/m2
12:54 35.0 °C 26.0 °C 1009.8 hPa SSW 5 km/h 12 km/h 63% 0.00 mm 647.91 W/m2
12:59 34.0 °C 26.0 °C 1009.8 hPa SSW 10 km/h 12 km/h 63% 0.00 mm 647.33 W/m2
13:03 34.0 °C 26.0 °C 1009.8 hPa SW 9 km/h 12 km/h 63% 0.00 mm 655.91 W/m2
13:09 34.0 °C 27.0 °C 1009.8 hPa South 10 km/h 16 km/h 65% 0.00 mm 644.68 W/m2
13:14 34.0 °C 26.0 °C 1009.7 hPa WSW 10 km/h 16 km/h 64% 0.00 mm 639.74 W/m2
13:19 34.0 °C 26.0 °C 1009.5 hPa SW 10 km/h 12 km/h 63% 0.00 mm 642.14 W/m2
13:24 35.0 °C 26.0 °C 1009.5 hPa SW 5 km/h 8 km/h 62% 0.00 mm 646.71 W/m2
13:29 34.0 °C 26.0 °C 1009.5 hPa West 11 km/h 16 km/h 64% 0.00 mm 647.47 W/m2
13:30 34.0 °C 26.0 °C 1009.5 hPa SSE 5 km/h 8 km/h 61% 0.00 mm 631.94 W/m2
13:39 35.0 °C 26.0 °C 1009.5 hPa WSW 6 km/h 8 km/h 60% 0.00 mm 642.95 W/m2
13:43 34.0 °C 25.0 °C 1009.5 hPa NNW 17 km/h 20 km/h 62% 0.00 mm 626.67 W/m2
13:49 34.0 °C 26.0 °C 1009.1 hPa WNW 14 km/h 16 km/h 63% 0.00 mm 634.80 W/m2
13:54 35.0 °C 26.0 °C 1009.3 hPa WSW 4 km/h 8 km/h 60% 0.00 mm 635.61 W/m2
13:59 35.0 °C 26.0 °C 1009.4 hPa SW 10 km/h 12 km/h 61% 0.00 mm 640.55 W/m2
14:04 35.0 °C 26.0 °C 1009.1 hPa South 8 km/h 8 km/h 60% 0.00 mm 629.95 W/m2
14:09 36.0 °C 26.0 °C 1009.3 hPa WSW 12 km/h 12 km/h 59% 0.00 mm 645.34 W/m2
14:14 36.0 °C 26.0 °C 1009.3 hPa SSW 10 km/h 12 km/h 59% 0.00 mm 636.34 W/m2
14:19 36.0 °C 25.0 °C 1009.2 hPa SW 6 km/h 8 km/h 56% 0.00 mm 635.61 W/m2
14:20 35.0 °C 25.0 °C 1009.1 hPa NNW 4 km/h 8 km/h 56% 0.00 mm 633.50 W/m2
14:29 35.0 °C 26.0 °C 1008.9 hPa SSW 10 km/h 12 km/h 59% 0.00 mm 618.48 W/m2
14:34 35.0 °C 26.0 °C 1008.9 hPa SSW 10 km/h 12 km/h 58% 0.00 mm 614.96 W/m2
14:39 35.0 °C 26.0 °C 1008.8 hPa SSW 10 km/h 12 km/h 58% 0.00 mm 615.05 W/m2
14:43 35.0 °C 26.0 °C 1009.1 hPa SSW 8 km/h 8 km/h 60% 0.00 mm 585.84 W/m2
14:49 35.0 °C 26.0 °C 1008.8 hPa South 15 km/h 16 km/h 61% 0.00 mm 585.47 W/m2
14:54 35.0 °C 26.0 °C 1008.7 hPa South 8 km/h 12 km/h 61% 0.00 mm 588.80 W/m2
14:59 35.0 °C 26.0 °C 1008.6 hPa South 12 km/h 16 km/h 61% 0.00 mm 589.26 W/m2
15:04 35.0 °C 26.0 °C 1008.5 hPa South 8 km/h 12 km/h 61% 0.00 mm 570.40 W/m2
15:09 35.0 °C 26.0 °C 1008.5 hPa SSW 15 km/h 20 km/h 60% 0.00 mm 569.57 W/m2
15:14 34.0 °C 26.0 °C 1008.6 hPa South 9 km/h 12 km/h 65% 0.00 mm 551.68 W/m2
15:19 34.0 °C 26.0 °C 1008.4 hPa SSE 7 km/h 12 km/h 65% 0.00 mm 545.69 W/m2
15:24 34.0 °C 26.0 °C 1008.6 hPa SSW 9 km/h 16 km/h 65% 0.00 mm 525.89 W/m2
15:29 34.0 °C 27.0 °C 1008.6 hPa South 13 km/h 16 km/h 66% 0.00 mm 533.45 W/m2
15:33 34.0 °C 27.0 °C 1008.6 hPa South 15 km/h 16 km/h 68% 0.00 mm 525.09 W/m2
15:39 34.0 °C 27.0 °C 1008.5 hPa SSW 11 km/h 16 km/h 69% 0.00 mm 520.90 W/m2
15:42 34.0 °C 27.0 °C 1008.5 hPa South 8 km/h 12 km/h 69% 0.00 mm 486.16 W/m2
15:49 33.0 °C 27.0 °C 1008.5 hPa SSW 12 km/h 16 km/h 71% 0.00 mm 507.18 W/m2
15:54 34.0 °C 27.0 °C 1008.5 hPa South 13 km/h 20 km/h 71% 0.00 mm 497.29 W/m2
15:58 34.0 °C 28.0 °C 1008.8 hPa South 14 km/h 20 km/h 72% 0.00 mm 491.35 W/m2
16:02 33.0 °C 27.0 °C 1008.7 hPa South 12 km/h 12 km/h 72% 0.00 mm 483.47 W/m2
16:09 34.0 °C 28.0 °C 1008.8 hPa South 10 km/h 12 km/h 71% 0.00 mm 480.83 W/m2
16:13 34.0 °C 27.0 °C 1008.8 hPa SSW 13 km/h 16 km/h 71% 0.00 mm 459.10 W/m2
16:19 34.0 °C 28.0 °C 1008.9 hPa South 10 km/h 16 km/h 71% 0.00 mm 445.37 W/m2
16:23 33.0 °C 27.0 °C 1008.8 hPa South 10 km/h 16 km/h 71% 0.00 mm 432.97 W/m2
16:29 33.0 °C 27.0 °C 1009.1 hPa South 10 km/h 12 km/h 71% 0.00 mm 431.50 W/m2
16:34 33.0 °C 27.0 °C 1009.0 hPa SSW 9 km/h 16 km/h 71% 0.00 mm 400.92 W/m2
16:39 34.0 °C 28.0 °C 1009.2 hPa South 15 km/h 16 km/h 72% 0.00 mm 394.09 W/m2
16:44 33.0 °C 27.0 °C 1009.1 hPa SSW 12 km/h 16 km/h 73% 0.00 mm 383.05 W/m2
16:49 33.0 °C 27.0 °C 1009.1 hPa SSW 12 km/h 16 km/h 72% 0.00 mm 382.93 W/m2
16:54 33.0 °C 27.0 °C 1009.1 hPa South 10 km/h 16 km/h 72% 0.00 mm 381.81 W/m2
16:59 33.0 °C 27.0 °C 1008.8 hPa SSW 8 km/h 16 km/h 73% 0.00 mm 366.56 W/m2
17:01 32.0 °C 27.0 °C 1008.8 hPa SSW 10 km/h 12 km/h 73% 0.00 mm 355.24 W/m2
17:09 33.0 °C 27.0 °C 1009.2 hPa South 11 km/h 16 km/h 72% 0.00 mm 347.31 W/m2
17:14 33.0 °C 27.0 °C 1009.3 hPa SW 13 km/h 16 km/h 73% 0.00 mm 329.54 W/m2
17:19 33.0 °C 27.0 °C 1009.5 hPa South 9 km/h 12 km/h 72% 0.00 mm 329.20 W/m2
17:29 32.0 °C 27.0 °C 1009.8 hPa South 13 km/h 20 km/h 73% 0.00 mm 308.16 W/m2
17:34 32.0 °C 27.0 °C 1009.6 hPa South 14 km/h 16 km/h 76% 0.00 mm 279.85 W/m2
17:38 32.0 °C 27.0 °C 1009.8 hPa South 8 km/h 12 km/h 76% 0.00 mm 250.98 W/m2
17:53 32.0 °C 27.0 °C 1009.8 hPa SSE 7 km/h 12 km/h 75% 0.00 mm 167.25 W/m2
17:59 32.0 °C 27.0 °C 1009.7 hPa SSW 11 km/h 16 km/h 77% 0.00 mm 84.80 W/m2
18:03 31.0 °C 27.0 °C 1009.8 hPa SSE 2 km/h 4 km/h 79% 0.00 mm 26.15 W/m2
18:05 31.0 °C 27.0 °C 1009.7 hPa SSE 9 km/h 12 km/h 79% 0.00 mm 22.36 W/m2
18:18 31.0 °C 27.0 °C 1009.8 hPa SSE 3 km/h 4 km/h 81% 0.00 mm 7.85 W/m2
18:23 31.0 °C 27.0 °C 1009.8 hPa South 10 km/h 12 km/h 81% 0.00 mm 6.50 W/m2
18:28 30.0 °C 27.0 °C 1009.8 hPa South 13 km/h 16 km/h 81% 0.00 mm 3.91 W/m2
18:34 30.0 °C 27.0 °C 1010.0 hPa South 6 km/h 8 km/h 81% 0.00 mm 0.66 W/m2
18:36 30.0 °C 27.0 °C 1009.8 hPa SSE 10 km/h 12 km/h 81% 0.00 mm 0.00 W/m2
18:44 30.0 °C 27.0 °C 1009.9 hPa South 10 km/h 12 km/h 81% 0.00 mm 0.00 W/m2
18:47 30.0 °C 27.0 °C 1010.2 hPa SSW 7 km/h 8 km/h 81% 0.00 mm 0.00 W/m2
18:53 30.0 °C 27.0 °C 1010.2 hPa SSE 5 km/h 8 km/h 81% 0.00 mm 0.00 W/m2
18:59 30.0 °C 27.0 °C 1010.0 hPa SSW 6 km/h 8 km/h 82% 0.00 mm 0.00 W/m2
19:04 30.0 °C 27.0 °C 1010.2 hPa SSW 8 km/h 12 km/h 81% 0.00 mm 0.00 W/m2
19:09 30.0 °C 27.0 °C 1010.2 hPa South 8 km/h 12 km/h 82% 0.00 mm 0.00 W/m2
19:14 30.0 °C 27.0 °C 1010.5 hPa SSE 7 km/h 8 km/h 82% 0.00 mm 0.00 W/m2
19:19 30.0 °C 27.0 °C 1010.2 hPa South 7 km/h 8 km/h 82% 0.00 mm 0.00 W/m2
19:20 30.0 °C 26.0 °C 1010.2 hPa South 4 km/h 8 km/h 81% 0.00 mm 0.00 W/m2
19:29 30.0 °C 26.0 °C 1010.2 hPa SSE 10 km/h 12 km/h 80% 0.00 mm 0.00 W/m2
19:30 30.0 °C 26.0 °C 1010.4 hPa SSE 8 km/h 12 km/h 80% 0.00 mm 0.00 W/m2
19:39 30.0 °C 26.0 °C 1010.4 hPa SSW 8 km/h 12 km/h 80% 0.00 mm 0.00 W/m2
19:43 30.0 °C 26.0 °C 1010.5 hPa SSW 3 km/h 4 km/h 79% 0.00 mm 0.00 W/m2
19:49 30.0 °C 26.0 °C 1010.8 hPa South 2 km/h 4 km/h 79% 0.00 mm 0.00 W/m2
19:53 30.0 °C 26.0 °C 1010.8 hPa South 5 km/h 8 km/h 79% 0.00 mm 0.00 W/m2
19:59 30.0 °C 26.0 °C 1010.8 hPa SSW 5 km/h 8 km/h 80% 0.00 mm 0.00 W/m2
20:04 30.0 °C 26.0 °C 1010.7 hPa SSE 11 km/h 16 km/h 80% 0.00 mm 0.00 W/m2
20:09 30.0 °C 26.0 °C 1010.8 hPa Calm   4 km/h 80% 0.00 mm 0.00 W/m2
20:13 30.0 °C 26.0 °C 1010.8 hPa South 1 km/h 4 km/h 80% 0.00 mm 0.00 W/m2
20:19 30.0 °C 26.0 °C 1011.0 hPa SSE 6 km/h 8 km/h 81% 0.00 mm 0.00 W/m2
20:23 30.0 °C 26.0 °C 1010.9 hPa SE 8 km/h 8 km/h 81% 0.00 mm 0.00 W/m2
20:29 30.0 °C 26.0 °C 1011.0 hPa SSE 6 km/h 8 km/h 81% 0.00 mm 0.00 W/m2
20:33 30.0 °C 26.0 °C 1011.0 hPa SSE 10 km/h 12 km/h 81% 0.00 mm 0.00 W/m2
20:39 30.0 °C 27.0 °C 1011.2 hPa SSE 8 km/h 12 km/h 82% 0.00 mm 0.00 W/m2
20:44 30.0 °C 27.0 °C 1011.3 hPa South 5 km/h 8 km/h 82% 0.00 mm 0.00 W/m2
20:49 30.0 °C 27.0 °C 1011.2 hPa SSW 8 km/h 8 km/h 82% 0.00 mm 0.00 W/m2
20:54 30.0 °C 27.0 °C 1011.2 hPa South 14 km/h 16 km/h 82% 0.00 mm 0.00 W/m2
20:59 30.0 °C 27.0 °C 1011.3 hPa SSE 10 km/h 12 km/h 82% 0.00 mm 0.00 W/m2
21:02 30.0 °C 27.0 °C 1011.3 hPa SSE 13 km/h 16 km/h 82% 0.00 mm 0.00 W/m2
21:07 30.0 °C 27.0 °C 1011.2 hPa SSE 4 km/h 8 km/h 82% 0.00 mm 0.00 W/m2
21:14 30.0 °C 27.0 °C 1011.6 hPa SSE 7 km/h 12 km/h 82% 0.00 mm 0.00 W/m2
21:19 30.0 °C 27.0 °C 1011.6 hPa South 8 km/h 8 km/h 83% 0.00 mm 0.00 W/m2
21:29 30.0 °C 27.0 °C 1011.9 hPa South 5 km/h 8 km/h 84% 0.00 mm 0.00 W/m2
21:34 30.0 °C 27.0 °C 1011.9 hPa SE 12 km/h 20 km/h 84% 0.00 mm 0.00 W/m2
21:39 30.0 °C 27.0 °C 1011.8 hPa SE 10 km/h 12 km/h 84% 0.00 mm 0.00 W/m2
21:44 30.0 °C 27.0 °C 1011.5 hPa SSE 9 km/h 12 km/h 84% 0.00 mm 0.00 W/m2
21:49 30.0 °C 27.0 °C 1011.9 hPa SSE 10 km/h 16 km/h 85% 0.00 mm 0.00 W/m2
21:54 30.0 °C 27.0 °C 1011.7 hPa SSE 9 km/h 12 km/h 85% 0.00 mm 0.00 W/m2
22:04 30.0 °C 27.0 °C 1011.9 hPa SE 12 km/h 12 km/h 85% 0.00 mm 0.00 W/m2
22:09 30.0 °C 27.0 °C 1011.9 hPa SE 8 km/h 12 km/h 85% 0.00 mm 0.00 W/m2
22:14 30.0 °C 27.0 °C 1011.9 hPa South 8 km/h 12 km/h 85% 0.00 mm 0.00 W/m2
22:19 30.0 °C 27.0 °C 1012.2 hPa SSE 6 km/h 8 km/h 85% 0.00 mm 0.00 W/m2
22:24 29.0 °C 27.0 °C 1011.9 hPa SSE 10 km/h 12 km/h 85% 0.00 mm 0.00 W/m2
22:29 29.0 °C 27.0 °C 1012.0 hPa SSE 10 km/h 12 km/h 86% 0.00 mm 0.00 W/m2
22:34 29.0 °C 27.0 °C 1011.9 hPa SSE 6 km/h 8 km/h 86% 0.00 mm 0.00 W/m2
22:39 29.0 °C 27.0 °C 1011.9 hPa SSE 6 km/h 8 km/h 86% 0.00 mm 0.00 W/m2
22:42 29.0 °C 27.0 °C 1012.0 hPa SSE 4 km/h 4 km/h 86% 0.00 mm 0.00 W/m2
22:49 29.0 °C 27.0 °C 1011.7 hPa SSE 5 km/h 8 km/h 86% 0.00 mm 0.00 W/m2
22:53 29.0 °C 27.0 °C 1011.5 hPa SSE 3 km/h 4 km/h 86% 0.00 mm 0.00 W/m2
22:59 29.0 °C 27.0 °C 1011.9 hPa SSW 5 km/h 8 km/h 86% 0.00 mm 0.00 W/m2
23:03 29.0 °C 27.0 °C 1011.7 hPa South 5 km/h 8 km/h 86% 0.00 mm 0.00 W/m2
23:09 29.0 °C 27.0 °C 1011.9 hPa Calm   4 km/h 86% 0.00 mm 0.00 W/m2
23:14 29.0 °C 27.0 °C 1011.9 hPa SSE 5 km/h 8 km/h 86% 0.00 mm 0.00 W/m2
23:19 29.0 °C 27.0 °C 1011.5 hPa South 4 km/h 4 km/h 86% 0.00 mm 0.00 W/m2
23:24 29.0 °C 27.0 °C 1011.4 hPa SSW 6 km/h 8 km/h 86% 0.00 mm 0.00 W/m2
23:29 29.0 °C 27.0 °C 1011.5 hPa South 5 km/h 8 km/h 87% 0.00 mm 0.00 W/m2
23:30 29.0 °C 27.0 °C 1011.2 hPa South 2 km/h 4 km/h 86% 0.00 mm 0.00 W/m2
23:39 29.0 °C 27.0 °C 1011.2 hPa Calm     87% 0.00 mm 0.00 W/m2
23:44 29.0 °C 27.0 °C 1011.2 hPa Calm     86% 0.00 mm 0.00 W/m2
23:49 29.0 °C 27.0 °C 1011.2 hPa Calm     86% 0.00 mm 0.00 W/m2
23:54 29.0 °C 27.0 °C 1011.4 hPa West 3 km/h 4 km/h 86% 0.00 mm 0.00 W/m2
23:59 29.0 °C 26.0 °C 1011.2 hPa West 4 km/h 4 km/h 85% 0.00 mm 0.00 W/m2
PIMOHWEATHER Philippines
Compliments of Weather Underground - 2 mb